Location: Big Meadows
(38.5260°N, 78.4400°W)
Time: 13:32:18
(UTC-04:00)

H-2A R/B - Visible Passes

Search period start: 30 March 2015 00:00
Search period end: 09 April 2015 00:00
Orbit: 734 x 838 km, 98.5° (Epoch: 29 March)

Date Brightness Start Highest point End Pass type
(mag) Time Alt. Az. Time Alt. Az. Time Alt. Az.
30 Mar 4.4 22:33:46 14° NNE 22:33:46 14° NNE 22:34:41 10° NNE visible
31 Mar 4.9 00:14:24 12° NNW 00:14:24 12° NNW 00:14:50 10° NNW visible
31 Mar 4.6 23:43:23 16° NNW 23:43:23 16° NNW 23:44:28 10° NNW visible
01 Apr 4.3 23:12:22 18° N 23:12:22 18° N 23:13:44 10° N visible
02 Apr 4.3 22:41:20 16° NNE 22:41:20 16° NNE 22:42:36 10° NNE visible
03 Apr 4.9 00:21:58 12° NNW 00:21:58 12° NNW 00:22:24 10° NNW visible
03 Apr 4.4 22:10:18 11° NE 22:10:18 11° NE 22:10:44 10° NNE visible
03 Apr 4.6 23:50:57 17° NNW 23:50:57 17° NNW 23:52:09 10° NNW visible
04 Apr 4.2 23:19:55 20° N 23:19:55 20° N 23:21:30 10° N visible
05 Apr 4.2 22:48:53 18° NNE 22:48:53 18° NNE 22:50:29 10° N visible
06 Apr 4.9 00:29:31 12° NW 00:29:31 12° NW 00:29:56 10° NW visible
06 Apr 4.3 22:17:51 13° NE 22:17:51 13° NE 22:18:52 10° NNE visible
06 Apr 4.5 23:58:30 18° NNW 23:58:30 18° NNW 23:59:48 10° NNW visible
07 Apr 4.2 23:27:28 22° N 23:27:28 22° N 23:29:14 10° N visible
08 Apr 4.0 22:56:26 21° NNE 22:56:26 21° NNE 22:58:19 10° N visible
